[[{"header":{"parameterUnit":"m.s-1","parameterCategory":2,"la1":30.2991,"la2":30.254,"lo1":-89.0895,"lo2":-89.0444,"dx":0.0017,"dy":0.0017,"nx":28,"ny":28,"refTime":"2022-12-09T15:00:00:Z","depth":"0","parameterNumber":2,"parameterNumberName":"U-component_of_CURRENTS"},"data":[0,0,0,0,0,0,0,0,0,0,0,0,0,0,0,0,0,0,0,0,0,0,0,0,0,0,0,0,0,0,0,0,0,0,0,0,0,0,0,0,0,0,0,0,0,0,0,0,0,0,0,0,0,0,0,0,0,0,-0.3666,-0.3667,0,-0.3659,-0.3658,-0.3658,-0.3589,-0.3588,-0.3587,-0.3586,-0.3446,-0.3443,-0.3441,0,0,0,0,0,0,0,0,0,0,0,0,0,-0.3548,-0.355,-0.3666,-0.3667,-0.3667,-0.3659,-0.3658,-0.3658,-0.3589,-0.3588,-0.3587,-0.3586,-0.3447,-0.3444,-0.344,0,0,0,0,0,0,0,0,0,0,0,0,0,-0.3569,-0.3551,-0.3666,-0.3637,-0.3635,-0.3659,-0.3658,-0.3657,-0.359,-0.3588,-0.3587,-0.3585,-0.3448,-0.3444,-0.344,-0.3446,0,0,-0.3427,-0.3425,0,0,0,0,0,0,0,0,-0.3568,-0.3573,-0.3641,-0.364,-0.3637,-0.363,-0.3566,-0.3583,-0.359,-0.3599,-0.3586,-0.3584,-0.3501,-0.3492,-0.3486,-0.3439,-0.3433,-0.3427,-0.3424,-0.3423,-0.3421,0,0,0,0,0,0,0,-0.3567,-0.3572,-0.3656,-0.3642,-0.364,-0.3601,-0.3602,-0.3568,-0.3551,-0.3599,-0.3595,-0.3607,-0.3498,-0.3491,-0.3482,-0.3431,-0.3427,-0.3423,-0.3421,-0.3419,-0.3375,-0.3376,0,0,0,0,0,0,-0.3588,-0.3572,-0.3656,-0.3656,-0.3606,-0.3605,-0.3606,-0.3628,-0.3554,-0.3545,-0.3608,-0.3604,-0.3498,-0.3487,-0.3477,-0.3493,-0.3423,-0.3419,-0.3416,-0.3373,-0.3375,-0.3376,0,0,0,0,0,0,-0.3586,-0.3596,-0.3657,-0.3618,-0.3624,-0.361,-0.3634,-0.3629,-0.3623,-0.3564,-0.355,-0.3609,-0.3497,-0.3483,-0.3456,-0.3486,-0.3417,-0.3413,-0.3372,-0.3374,-0.3376,-0.3515,0,0,0,0,0,0,-0.3583,-0.3596,-0.3611,-0.3621,-0.3628,-0.3686,-0.3637,-0.363,-0.3636,-0.363,-0.3561,-0.3546,-0.3494,-0.3463,-0.3452,-0.3479,-0.341,-0.337,-0.3373,-0.3375,-0.3509,-0.3522,-0.3533,0,0,0,0,0,-0.3579,-0.3612,-0.3612,-0.3622,-0.3653,-0.3688,-0.3688,-0.3666,-0.3638,-0.365,-0.36,-0.3548,-0.347,-0.3461,-0.3448,-0.3474,-0.3369,-0.3372,-0.3375,-0.3504,-0.3519,-0.3533,0,0,0,0,0,0,-0.3567,-0.3609,-0.3609,-0.3653,-0.3677,-0.3679,-0.3689,-0.3678,-0.365,-0.3632,-0.3566,-0.3549,-0.3538,-0.3488,-0.3479,-0.3468,-0.3411,-0.3412,-0.3514,-0.3528,-0.3539,-0.3556,-0.3407,0,0,0,0,0,-0.3578,-0.3613,-0.3645,-0.3681,-0.3696,-0.3694,-0.3702,-0.3694,-0.3679,-0.3665,-0.3621,-0.3571,-0.3542,-0.352,-0.3483,-0.3478,-0.3452,-0.3485,-0.3497,-0.3508,-0.3512,-0.3493,-0.3504,-0.3386,-0.3386,-0.3386,0,0,-0.3585,-0.3613,-0.3632,-0.3681,-0.3691,-0.3738,-0.3693,-0.3718,-0.3745,-0.3653,-0.3658,-0.3611,-0.355,-0.3547,-0.3537,-0.3507,-0.3538,-0.3511,-0.3521,-0.352,-0.3497,-0.3509,-0.3519,-0.3388,-0.3388,-0.3387,0,0,-0.3634,-0.3643,-0.3696,-0.3725,-0.3762,-0.3764,-0.378,-0.379,-0.3778,-0.3787,-0.3728,-0.3702,-0.3656,-0.3625,-0.3601,-0.3655,-0.3603,-0.3642,-0.3713,-0.3695,-0.3705,-0.3713,-0.3742,-0.3751,-0.3645,-0.3646,-0.3646,0,-0.3636,-0.371,-0.3715,-0.3779,-0.3801,-0.3786,-0.3842,-0.3845,-0.3843,-0.3837,-0.3802,-0.3749,-0.3696,-0.3697,-0.3714,-0.3684,-0.3677,-0.3668,-0.3712,-0.3719,-0.3725,-0.3752,-0.3761,-0.3653,-0.3652,-0.3651,-0.3651,0,-0.3735,-0.3787,-0.3819,-0.3892,-0.3918,-0.3957,-0.3974,-0.3983,-0.396,-0.3956,-0.3945,-0.388,-0.384,-0.3832,-0.3787,-0.3808,-0.3795,-0.3735,-0.3682,-0.3746,-0.3771,-0.3777,-0.3663,-0.366,-0.3658,-0.3657,0,0,-0.3739,-0.3863,-0.387,-0.3914,-0.3971,-0.4,-0.4048,-0.4078,-0.4106,-0.4079,-0.4103,-0.4052,-0.4001,-0.3971,-0.3914,-0.3903,-0.3953,-0.3845,-0.3841,-0.3886,-0.3955,-0.3799,-0.3791,-0.3899,-0.39,-0.39,-0.3974,0,-0.3803,-0.393,-0.3972,-0.4068,-0.4122,-0.4127,-0.4177,-0.4197,-0.4194,-0.4215,-0.4148,-0.4137,-0.4061,-0.4035,-0.4019,-0.3956,-0.3968,-0.3941,-0.3875,-0.3875,-0.3735,-0.3791,-0.3443,-0.3464,-0.398,-0.3981,-0.3982,0,-0.387,-0.3945,-0.4059,-0.4146,-0.4169,-0.4226,-0.4272,-0.4313,-0.4339,-0.4325,-0.4304,-0.4257,-0.4229,-0.4149,-0.4099,-0.4084,-0.4038,-0.3998,-0.3998,-0.38,-0.3727,-0.3471,-0.3455,-0.3409,-0.3991,-0.399,-0.3989,0,-0.3848,-0.3984,-0.4068,-0.4104,-0.4219,-0.4255,-0.4293,-0.4341,-0.4364,-0.4384,-0.4382,-0.436,-0.4305,-0.4262,-0.4162,-0.4134,-0.4122,-0.4062,-0.3899,-0.3891,-0.3551,-0.3508,-0.3476,-0.4049,-0.4048,-0.4048,-0.4048,0,-0.3871,-0.3936,-0.407,-0.4118,-0.4214,-0.4266,-0.4349,-0.4381,-0.4419,-0.4435,-0.4418,-0.4407,-0.432,-0.4289,-0.4227,-0.4079,-0.4164,-0.3925,-0.3887,-0.3594,-0.3556,-0.346,-0.351,-0.4051,-0.405,-0.405,-0.4049,0,-0.3856,-0.3927,-0.4057,-0.4191,-0.4218,-0.4291,-0.4376,-0.44,-0.4442,-0.4459,-0.4449,-0.4432,-0.434,-0.4286,-0.4212,-0.4109,-0.3921,-0.3966,-0.3653,-0.3572,-0.3311,-0.3381,-0.3347,-0.3266,-0.3782,-0.3779,-0.3776,0,-0.3873,-0.3943,-0.4117,-0.4139,-0.4203,-0.4294,-0.4316,-0.4397,-0.441,-0.4456,-0.4434,-0.4381,-0.421,-0.4077,-0.389,-0.3741,-0.3789,-0.344,-0.3291,-0.326,-0.3312,-0.3389,-0.3331,-0.2936,-0.2926,-0.2919,-0.2912,0,-0.3901,-0.3974,-0.4035,-0.4088,-0.4127,-0.4209,-0.4247,-0.4248,-0.4298,-0.4251,-0.4113,-0.3977,-0.3822,-0.344,-0.3329,-0.3238,-0.3284,-0.327,-0.3285,-0.2689,-0.272,-0.2631,-0.3003,-0.2841,-0.2849,-0.2854,-0.2858,-0.286,-0.3877,-0.3918,-0.3926,-0.3929,-0.396,-0.3926,-0.387,-0.3872,-0.3766,-0.3507,-0.3662,-0.3254,-0.3085,-0.2756,-0.2715,-0.2513,-0.2734,-0.2392,-0.2505,-0.261,-0.2432,-0.2684,-0.2439,-0.2443,-0.2447,-0.2451,-0.2454,0,-0.3722,-0.3692,-0.3716,-0.3632,-0.3484,-0.3638,-0.3621,-0.3444,-0.3132,-0.2938,-0.2663,-0.228,-0.2005,-0.1986,-0.1844,-0.1747,-0.1743,-0.1804,-0.1808,-0.1803,-0.2005,-0.1858,-0.1414,-0.1414,-0.1414,-0.1414,-0.1414,-0.1414,-0.3602,-0.3477,-0.3428,-0.3051,-0.2996,-0.2776,-0.2691,-0.2496,-0.2283,-0.172,-0.1381,-0.1201,-0.1405,-0.1565,-0.1482,-0.1416,-0.1475,-0.1388,-0.1637,-0.1733,-0.1796,-0.1857,-0.1728,-0.1263,-0.1263,-0.1221,-0.1221,-0.1221]},{"header":{"parameterUnit":"m.s-1","parameterCategory":2,"la1":30.2991,"la2":30.254,"lo1":-89.0895,"lo2":-89.0444,"dx":0.0017,"dy":0.0017,"nx":28,"ny":28,"refTime":"2022-12-09T15:00:00:Z","depth":"0","parameterNumber":3,"parameterNumberName":"V-component_of_CURRENTS"},"data":[0,0,0,0,0,0,0,0,0,0,0,0,0,0,0,0,0,0,0,0,0,0,0,0,0,0,0,0,0,0,0,0,0,0,0,0,0,0,0,0,0,0,0,0,0,0,0,0,0,0,0,0,0,0,0,0,0,0,-0.046,-0.0458,0,-0.03,-0.0299,-0.0297,-0.0229,-0.0229,-0.0229,-0.0229,-0.0086,-0.0082,-0.0078,0,0,0,0,0,0,0,0,0,0,0,0,0,-0.0591,-0.059,-0.046,-0.0458,-0.0456,-0.03,-0.0298,-0.0296,-0.0229,-0.0229,-0.0229,-0.0229,-0.0087,-0.0083,-0.0078,0,0,0,0,0,0,0,0,0,0,0,0,0,-0.0496,-0.059,-0.0461,-0.0402,-0.0395,-0.0301,-0.0298,-0.0296,-0.0229,-0.0229,-0.0229,-0.0229,-0.0089,-0.0083,-0.0077,-0.0039,0,0,-0.0059,-0.0057,0,0,0,0,0,0,0,0,-0.0502,-0.0491,-0.0413,-0.0406,-0.0397,-0.0283,-0.0292,-0.021,-0.0229,-0.0294,-0.0229,-0.0229,-0.0152,-0.0141,-0.0113,-0.0032,-0.0026,-0.0059,-0.0055,-0.0053,-0.0051,0,0,0,0,0,0,0,-0.0508,-0.0497,-0.0399,-0.041,-0.0401,-0.0343,-0.0331,-0.0276,-0.0226,-0.0289,-0.0283,-0.0261,-0.0148,-0.0119,-0.0109,-0.0024,-0.0059,-0.0054,-0.005,-0.0048,0.0125,0.0126,0,0,0,0,0,0,-0.0529,-0.0504,-0.0404,-0.0394,-0.0448,-0.0341,-0.0328,-0.0321,-0.0226,-0.0211,-0.0261,-0.0259,-0.0129,-0.0116,-0.0104,-0.0038,-0.0053,-0.0047,-0.0044,0.0124,0.0125,0.0126,0,0,0,0,0,0,-0.0533,-0.0523,-0.0411,-0.0443,-0.0424,-0.034,-0.0332,-0.0318,-0.0288,-0.0205,-0.0191,-0.0246,-0.0129,-0.0112,-0.0053,-0.0032,-0.0045,-0.0039,0.0122,0.0124,0.0125,0.0085,0,0,0,0,0,0,-0.0538,-0.0525,-0.0525,-0.0445,-0.0423,-0.0362,-0.0331,-0.0315,-0.0274,-0.0269,-0.0187,-0.0174,-0.0127,-0.0062,-0.0047,-0.0025,-0.0035,0.0121,0.0123,0.0125,0.0085,0.0085,0.0085,0,0,0,0,0,-0.0543,-0.0551,-0.0527,-0.0514,-0.0428,-0.0362,-0.0346,-0.0287,-0.0273,-0.0261,-0.0204,-0.0176,-0.0039,-0.0057,-0.004,-0.0015,0.012,0.0122,0.0125,0.0085,0.0085,0.0085,0,0,0,0,0,0,-0.0612,-0.0542,-0.0514,-0.0501,-0.0437,-0.035,-0.0329,-0.0291,-0.0235,-0.0235,-0.0164,-0.0146,-0.0085,-0.0045,-0.0067,0.0042,0.0046,0.0052,0.0011,0.0011,0.0011,0.0005,-0.003,0,0,0,0,0,-0.0625,-0.061,-0.0532,-0.0518,-0.0491,-0.0411,-0.0377,-0.0339,-0.0277,-0.0253,-0.0191,-0.0125,-0.006,-0.0024,0.0035,0.0092,0.0115,0.0121,0.0121,0.0121,0.0129,0.0171,0.0175,0.0134,0.0134,0.0134,0,0,-0.0647,-0.0604,-0.0596,-0.053,-0.0476,-0.0436,-0.0392,-0.0348,-0.0306,-0.0246,-0.018,-0.0126,-0.0046,0.002,0.0052,0.0056,0.0143,0.0124,0.0123,0.0132,0.0174,0.0177,0.0181,0.0136,0.0135,0.0135,0,0,-0.0678,-0.0646,-0.0639,-0.0585,-0.051,-0.0461,-0.0453,-0.0369,-0.0325,-0.0259,-0.0201,-0.0135,-0.004,0.003,0.0076,0.0113,0.0138,0.0129,0.0131,0.0171,0.0174,0.0177,0.0195,0.02,0.0133,0.0133,0.0133,0,-0.0705,-0.0679,-0.0626,-0.0593,-0.0546,-0.0478,-0.0449,-0.0392,-0.0298,-0.0255,-0.0248,-0.0092,-0.0029,0.007,0.0088,0.0115,0.0127,0.012,0.0169,0.0173,0.0177,0.0194,0.02,0.0132,0.0132,0.0132,0.0132,0,-0.0714,-0.0687,-0.0676,-0.0612,-0.0564,-0.0528,-0.0442,-0.0395,-0.0343,-0.0279,-0.0182,-0.0095,-0.0005,0.0032,0.0077,0.0149,0.0143,0.0156,0.016,0.0178,0.0195,0.0202,0.0129,0.013,0.013,0.0131,0,0,-0.0789,-0.0701,-0.0697,-0.067,-0.0567,-0.0541,-0.0464,-0.0376,-0.0345,-0.0245,-0.019,-0.0052,-0.0017,0.0039,0.0101,0.0153,0.0192,0.0163,0.0166,0.0166,0.0257,0.0365,0.0382,0.0201,0.0202,0.0203,0.025,0,-0.0805,-0.0773,-0.0707,-0.067,-0.0646,-0.0546,-0.0491,-0.0406,-0.0332,-0.0271,-0.0152,-0.0092,-0.0011,0.001,0.0085,0.0155,0.0211,0.0177,0.0254,0.0256,0.0339,0.0396,0.0477,0.0537,0.0257,0.0259,0.0259,0,-0.0834,-0.0803,-0.0779,-0.0705,-0.0686,-0.0657,-0.0569,-0.0507,-0.0388,-0.0332,-0.023,-0.0159,-0.0044,-0.0008,0.015,0.0116,0.0193,0.025,0.0253,0.0378,0.038,0.0481,0.0561,0.0732,0.027,0.027,0.0269,0,-0.0932,-0.0857,-0.0847,-0.0814,-0.0722,-0.0694,-0.0646,-0.0536,-0.0508,-0.0389,-0.0389,-0.0216,-0.0196,-0.004,0.0109,0.0117,0.0251,0.0271,0.0448,0.0453,0.0556,0.0571,0.0806,0.0385,0.0385,0.0385,0.0385,0,-0.098,-0.0978,-0.0903,-0.0899,-0.0902,-0.0795,-0.0794,-0.071,-0.0632,-0.0636,-0.0455,-0.0438,-0.0212,-0.01,0.0074,0.0287,0.0228,0.0471,0.0492,0.0545,0.0558,0.0739,0.0783,0.0387,0.0386,0.0386,0.0386,0,-0.1105,-0.1046,-0.1046,-0.0969,-0.0957,-0.097,-0.0925,-0.0937,-0.0832,-0.0839,-0.0819,-0.064,-0.0445,-0.0203,0.0023,0.0206,0.0547,0.0502,0.0548,0.0579,0.096,0.0996,0.1229,0.1347,0.0733,0.0736,0.0739,0,-0.1168,-0.1181,-0.1142,-0.1172,-0.115,-0.1151,-0.1173,-0.1061,-0.1074,-0.0966,-0.0998,-0.0801,-0.0595,-0.0181,0.0176,0.0545,0.0657,0.0787,0.0864,0.1028,0.1082,0.1095,0.1176,0.0959,0.0963,0.0967,0.097,0,-0.1289,-0.1281,-0.1285,-0.1332,-0.137,-0.1403,-0.1412,-0.1431,-0.1322,-0.1241,-0.1095,-0.0894,-0.048,0.0031,0.0492,0.0699,0.0953,0.0875,0.1036,0.1299,0.1334,0.144,0.085,0.1001,0.0998,0.0996,0.0994,0.0993,-0.1394,-0.1437,-0.1435,-0.1475,-0.1536,-0.1587,-0.1582,-0.1514,-0.1423,-0.1111,-0.1047,-0.0491,-0.0081,0.0662,0.0873,0.133,0.1245,0.1483,0.1512,0.1508,0.166,0.1149,0.1339,0.1338,0.1337,0.1336,0.1335,0,-0.1487,-0.1514,-0.1574,-0.1603,-0.1671,-0.1665,-0.169,-0.158,-0.1362,-0.0883,-0.051,0.0275,0.0806,0.1225,0.1714,0.1948,0.1985,0.2027,0.2059,0.2113,0.1666,0.1719,0.2011,0.2011,0.2011,0.2011,0.2011,0.201,-0.1543,-0.1599,-0.1596,-0.167,-0.1705,-0.1716,-0.1694,-0.1428,-0.1042,-0.0188,0.0556,0.1063,0.1412,0.1936,0.2361,0.241,0.2591,0.2567,0.2645,0.2326,0.2277,0.2229,0.2296,0.2704,0.2704,0.3104,0.3108,0.3111]}],[{"header":{"parameterUnit":"m.s-1","parameterCategory":2,"la1":30.2991,"la2":30.254,"lo1":-89.0895,"lo2":-89.0444,"dx":0.0017,"dy":0.0017,"nx":28,"ny":28,"refTime":"2022-12-09T15:00:00:Z","depth":"2","parameterNumber":2,"parameterNumberName":"U-component_of_CURRENTS"},"data":[0,0,0,0,0,0,0,0,0,0,0,0,0,0,0,0,0,0,0,0,0,0,0,0,0,0,0,0,0,0,0,0,0,0,0,0,0,0,0,0,0,0,0,0,0,0,0,0,0,0,0,0,0,0,0,0,0,0,-0.2625,-0.2629,0,-0.2769,-0.2768,-0.2768,-0.2757,-0.2757,-0.2757,-0.2757,-0.2657,-0.2654,-0.2651,0,0,0,0,0,0,0,0,0,0,0,0,0,-0.2299,-0.2303,-0.2625,-0.2629,-0.2633,-0.2769,-0.2768,-0.2768,-0.2757,-0.2757,-0.2757,-0.2757,-0.2657,-0.2654,-0.2651,0,0,0,0,0,0,0,0,0,0,0,0,0,-0.242,-0.2305,-0.2624,-0.266,-0.2666,-0.2769,-0.2768,-0.2768,-0.2757,-0.2757,-0.2757,-0.2757,-0.2658,-0.2655,-0.2651,-0.263,0,0,-0.2639,-0.2637,0,0,0,0,0,0,0,0,-0.2413,-0.2429,-0.2651,-0.2658,-0.2666,-0.2765,-0.2618,-0.2718,-0.2757,-0.2699,-0.2757,-0.2757,-0.2685,-0.2679,-0.2678,-0.2625,-0.2621,-0.2639,-0.2636,-0.2635,-0.2634,0,0,0,0,0,0,0,-0.2405,-0.2423,-0.2659,-0.2656,-0.2665,-0.2656,-0.2671,-0.2636,-0.2669,-0.2704,-0.2709,-0.2761,-0.2684,-0.2682,-0.2675,-0.2619,-0.2639,-0.2635,-0.2633,-0.2631,-0.2586,-0.2587,0,0,0,0,0,0,-0.2436,-0.2416,-0.2655,-0.2666,-0.2562,-0.2664,-0.2679,-0.2715,-0.2675,-0.2678,-0.2761,-0.2761,-0.2688,-0.2679,-0.2671,-0.2686,-0.2635,-0.2631,-0.2629,-0.2585,-0.2586,-0.2588,0,0,0,0,0,0,-0.2428,-0.2455,-0.265,-0.2562,-0.2589,-0.2672,-0.271,-0.2718,-0.2737,-0.2725,-0.2718,-0.2778,-0.2688,-0.2677,-0.2667,-0.268,-0.2629,-0.2626,-0.2584,-0.2585,-0.2587,-0.2687,0,0,0,0,0,0,-0.2417,-0.245,-0.2474,-0.2564,-0.2597,-0.273,-0.2713,-0.2722,-0.2779,-0.2779,-0.2736,-0.2726,-0.2687,-0.2674,-0.2664,-0.2674,-0.2623,-0.2582,-0.2585,-0.2586,-0.2682,-0.2692,-0.27,0,0,0,0,0,-0.2404,-0.2436,-0.2474,-0.2504,-0.263,-0.2734,-0.2747,-0.2789,-0.278,-0.2798,-0.2774,-0.2728,-0.2679,-0.2672,-0.266,-0.2669,-0.2581,-0.2584,-0.2586,-0.2678,-0.269,-0.27,0,0,0,0,0,0,-0.2299,-0.2444,-0.2485,-0.2558,-0.2658,-0.2741,-0.2778,-0.2803,-0.2799,-0.2796,-0.2745,-0.2734,-0.2729,-0.2689,-0.2682,-0.2663,-0.2621,-0.2621,-0.2695,-0.2706,-0.2714,-0.2645,-0.2619,0,0,0,0,0,-0.2299,-0.2373,-0.2499,-0.257,-0.2618,-0.2698,-0.2743,-0.2787,-0.2816,-0.2816,-0.2792,-0.2758,-0.2727,-0.2712,-0.2682,-0.2672,-0.2654,-0.2669,-0.2678,-0.2686,-0.2622,-0.2605,-0.2606,-0.2596,-0.2596,-0.2596,0,0,-0.2302,-0.2382,-0.2435,-0.2558,-0.2629,-0.269,-0.2718,-0.2814,-0.2848,-0.2802,-0.2811,-0.2791,-0.2733,-0.2728,-0.272,-0.2697,-0.271,-0.2689,-0.2696,-0.2626,-0.2608,-0.2608,-0.2609,-0.2598,-0.2597,-0.2597,0,0,-0.2335,-0.2396,-0.2469,-0.2541,-0.2677,-0.2712,-0.2746,-0.2843,-0.2864,-0.2899,-0.2864,-0.2842,-0.282,-0.2769,-0.2739,-0.2772,-0.2759,-0.279,-0.2772,-0.276,-0.2759,-0.2758,-0.2867,-0.2874,-0.2791,-0.2792,-0.2792,0,-0.2324,-0.2406,-0.2506,-0.2576,-0.2606,-0.2717,-0.2751,-0.2814,-0.2893,-0.2877,-0.2914,-0.2843,-0.2819,-0.2752,-0.2775,-0.2784,-0.2822,-0.2743,-0.277,-0.2767,-0.2764,-0.2875,-0.2881,-0.2797,-0.2796,-0.2796,-0.2795,0,-0.2377,-0.2459,-0.2503,-0.2604,-0.2648,-0.2708,-0.2801,-0.2846,-0.2877,-0.2905,-0.2886,-0.2876,-0.2809,-0.2833,-0.2812,-0.2776,-0.2835,-0.2792,-0.2742,-0.2771,-0.2888,-0.2893,-0.2804,-0.2802,-0.2801,-0.28,0,0,-0.2327,-0.2496,-0.2522,-0.2546,-0.2643,-0.2681,-0.2735,-0.2765,-0.2779,-0.2848,-0.2811,-0.2796,-0.2791,-0.2752,-0.275,-0.2744,-0.2825,-0.2767,-0.2764,-0.2874,-0.2904,-0.2668,-0.2652,-0.2802,-0.28,-0.2799,-0.3042,0,-0.2328,-0.2399,-0.2488,-0.2547,-0.2559,-0.2638,-0.2666,-0.2716,-0.2758,-0.2774,-0.2765,-0.2754,-0.277,-0.2763,-0.2754,-0.2794,-0.2821,-0.2768,-0.2853,-0.2857,-0.2637,-0.2639,-0.2422,-0.2588,-0.3047,-0.3048,-0.3048,0,-0.2364,-0.2361,-0.2384,-0.2457,-0.2472,-0.2521,-0.2511,-0.257,-0.2622,-0.266,-0.2645,-0.2672,-0.2675,-0.2687,-0.2762,-0.2744,-0.2806,-0.2852,-0.2862,-0.2569,-0.2618,-0.2604,-0.258,-0.3056,-0.3056,-0.3055,-0.3055,0,-0.2221,-0.2331,-0.2301,-0.2321,-0.2396,-0.2409,-0.2445,-0.2501,-0.2549,-0.2584,-0.2626,-0.2623,-0.2668,-0.2702,-0.2828,-0.2806,-0.2936,-0.2917,-0.2775,-0.277,-0.2545,-0.2514,-0.2922,-0.2921,-0.2921,-0.292,-0.2919,0,-0.2162,-0.217,-0.2248,-0.2223,-0.2201,-0.2291,-0.2324,-0.2372,-0.2451,-0.2483,-0.2556,-0.2593,-0.2668,-0.2767,-0.2837,-0.2836,-0.2958,-0.2736,-0.2758,-0.2587,-0.2558,-0.2889,-0.2882,-0.2929,-0.2927,-0.2925,-0.2924,0,-0.2066,-0.2117,-0.2102,-0.2132,-0.216,-0.2138,-0.229,-0.2338,-0.2422,-0.2468,-0.2485,-0.261,-0.2684,-0.2795,-0.2894,-0.2846,-0.2874,-0.2849,-0.2694,-0.2679,-0.2739,-0.2736,-0.2678,-0.267,-0.2663,-0.2658,-0.2653,0,-0.2001,-0.1982,-0.2026,-0.2031,-0.2063,-0.2099,-0.2166,-0.2285,-0.2355,-0.2472,-0.2487,-0.2575,-0.254,-0.2637,-0.2606,-0.264,-0.2775,-0.2443,-0.2235,-0.2657,-0.2689,-0.2695,-0.27,-0.2114,-0.2105,-0.2098,-0.2093,0,-0.1825,-0.1889,-0.1884,-0.1905,-0.1961,-0.2024,-0.2125,-0.2157,-0.2286,-0.2325,-0.2329,-0.2279,-0.2313,-0.2165,-0.2192,-0.2187,-0.2386,-0.2281,-0.2782,-0.2122,-0.2117,-0.215,-0.2176,-0.203,-0.2036,-0.2041,-0.2044,-0.2047,-0.1745,-0.1703,-0.1756,-0.1786,-0.1855,-0.1894,-0.188,-0.1995,-0.2004,-0.1986,-0.2075,-0.1948,-0.1951,-0.1763,-0.1749,-0.1765,-0.1893,-0.1826,-0.1853,-0.1887,-0.1688,-0.166,-0.1465,-0.1468,-0.1471,-0.1473,-0.1475,0,-0.1602,-0.1602,-0.1633,-0.1658,-0.1702,-0.1773,-0.1824,-0.177,-0.1695,-0.1721,-0.1651,-0.1433,-0.1306,-0.1373,-0.1249,-0.1193,-0.1259,-0.1164,-0.1267,-0.1326,-0.1379,-0.1161,-0.0797,-0.0795,-0.0794,-0.0793,0,0,-0.1523,-0.1495,-0.1513,-0.1493,-0.1528,-0.1462,-0.1425,-0.1336,-0.1307,-0.1178,-0.1125,-0.1203,-0.1233,-0.1007,-0.0961,-0.0852,-0.1087,-0.0805,-0.1339,-0.1514,-0.1566,-0.1735,-0.1457,0,0,0,0,0]},{"header":{"parameterUnit":"m.s-1","parameterCategory":2,"la1":30.2991,"la2":30.254,"lo1":-89.0895,"lo2":-89.0444,"dx":0.0017,"dy":0.0017,"nx":28,"ny":28,"refTime":"2022-12-09T15:00:00:Z","depth":"2","parameterNumber":3,"parameterNumberName":"V-component_of_CURRENTS"},"data":[0,0,0,0,0,0,0,0,0,0,0,0,0,0,0,0,0,0,0,0,0,0,0,0,0,0,0,0,0,0,0,0,0,0,0,0,0,0,0,0,0,0,0,0,0,0,0,0,0,0,0,0,0,0,0,0,0,0,0.0284,0.0287,0,0.0502,0.0504,0.0506,0.0563,0.0563,0.0563,0.0562,0.0589,0.059,0.0591,0,0,0,0,0,0,0,0,0,0,0,0,0,0.006,0.0062,0.0283,0.0287,0.0291,0.0502,0.0504,0.0506,0.0564,0.0563,0.0563,0.0562,0.0589,0.059,0.0591,0,0,0,0,0,0,0,0,0,0,0,0,0,0.0196,0.0063,0.0283,0.0352,0.0362,0.0502,0.0504,0.0507,0.0564,0.0563,0.0563,0.0562,0.0588,0.059,0.0592,0.0613,0,0,0.0596,0.0597,0,0,0,0,0,0,0,0,0.0188,0.0202,0.0339,0.0348,0.0359,0.0514,0.0436,0.0536,0.0564,0.0476,0.0562,0.0562,0.0553,0.0558,0.0588,0.0614,0.0615,0.0597,0.0598,0.0598,0.0599,0,0,0,0,0,0,0,0.0178,0.0194,0.036,0.0343,0.0355,0.0424,0.0439,0.0456,0.0503,0.0484,0.0491,0.0532,0.0556,0.0587,0.0589,0.0615,0.0597,0.0598,0.0599,0.06,0.0706,0.0708,0,0,0,0,0,0,0.0165,0.0185,0.0353,0.0367,0.0282,0.0428,0.0446,0.0456,0.0508,0.052,0.0532,0.0534,0.0584,0.0587,0.059,0.0648,0.0598,0.06,0.0601,0.0705,0.0707,0.0709,0,0,0,0,0,0,0.0159,0.0177,0.0344,0.0291,0.0318,0.0432,0.0444,0.0461,0.049,0.0549,0.0555,0.0544,0.0584,0.0588,0.0626,0.0648,0.06,0.0602,0.0702,0.0705,0.0708,0.0744,0,0,0,0,0,0,0.0151,0.0172,0.0168,0.0289,0.0321,0.0414,0.0447,0.0466,0.0521,0.0525,0.0561,0.0564,0.0584,0.0624,0.0628,0.0649,0.0603,0.07,0.0704,0.0707,0.074,0.0748,0.0754,0,0,0,0,0,0.0142,0.0123,0.0166,0.0187,0.0313,0.0415,0.0435,0.051,0.0522,0.0531,0.0578,0.0562,0.0649,0.0627,0.0631,0.0653,0.0698,0.0703,0.0707,0.0737,0.0746,0.0754,0,0,0,0,0,0,0.0024,0.0133,0.0181,0.0196,0.0301,0.0428,0.0444,0.0505,0.0552,0.055,0.0586,0.0594,0.0636,0.0642,0.0617,0.0697,0.067,0.0676,0.0692,0.0701,0.0707,0.0642,0.0604,0,0,0,0,0,0.0002,0.0016,0.0148,0.0169,0.0207,0.0326,0.0375,0.044,0.0513,0.0533,0.0573,0.0613,0.066,0.0676,0.0709,0.0747,0.0747,0.0765,0.0772,0.0777,0.073,0.0759,0.0762,0.0723,0.0723,0.0723,0,0,-0.0023,0.0033,0.0049,0.0147,0.0222,0.027,0.0348,0.0423,0.0476,0.0525,0.0573,0.0631,0.0675,0.0733,0.0751,0.0737,0.0806,0.0783,0.0787,0.0735,0.0763,0.0767,0.077,0.0726,0.0725,0.0725,0,0,-0.0074,-0.0032,-0.0034,0.0037,0.0156,0.023,0.0247,0.0378,0.0437,0.0521,0.0574,0.0651,0.0705,0.0767,0.0797,0.0856,0.0839,0.0863,0.0843,0.0874,0.0877,0.0878,0.0948,0.0956,0.0868,0.0868,0.0868,0,-0.0112,-0.0101,-0.0012,0.0008,0.0044,0.0197,0.0206,0.0308,0.0446,0.047,0.0528,0.0646,0.0725,0.0778,0.0834,0.0869,0.0877,0.0811,0.088,0.0881,0.0882,0.0952,0.096,0.087,0.087,0.087,0.087,0,-0.0158,-0.0139,-0.0139,-0.0078,-0.0028,0.0012,0.0156,0.0222,0.0314,0.0407,0.0495,0.0639,0.0687,0.0768,0.0833,0.0882,0.0888,0.0884,0.085,0.0887,0.0962,0.0969,0.0873,0.0873,0.0872,0.0871,0,0,-0.0269,-0.0193,-0.0192,-0.0179,-0.0079,-0.0036,0.0029,0.0117,0.0147,0.0316,0.0335,0.0534,0.0601,0.0642,0.0752,0.0829,0.0937,0.0861,0.0862,0.0914,0.1014,0.0914,0.0913,0.0925,0.0925,0.0925,0.1087,0,-0.0334,-0.0341,-0.0292,-0.0284,-0.0275,-0.0165,-0.013,-0.0024,0.0092,0.0162,0.0334,0.0412,0.0558,0.061,0.0706,0.0861,0.0943,0.0893,0.0981,0.0984,0.0875,0.0912,0.0881,0.1009,0.1094,0.1095,0.1096,0,-0.041,-0.0399,-0.0427,-0.0396,-0.0392,-0.0366,-0.0321,-0.0254,-0.0123,-0.0041,0.006,0.0187,0.0356,0.047,0.072,0.0668,0.0828,0.0964,0.0972,0.0845,0.0892,0.0974,0.1018,0.1107,0.1106,0.1105,0.1105,0,-0.0536,-0.0506,-0.0545,-0.0526,-0.0459,-0.0463,-0.0431,-0.0328,-0.0284,-0.0165,-0.0127,0.004,0.0167,0.0347,0.0672,0.068,0.0925,0.0968,0.1027,0.1026,0.0993,0.0984,0.11,0.11,0.11,0.1099,0.1099,0,-0.0639,-0.066,-0.0592,-0.0599,-0.0637,-0.0566,-0.0588,-0.0518,-0.0442,-0.0404,-0.0236,-0.0155,0.0139,0.0334,0.0586,0.0822,0.0857,0.1003,0.1037,0.1013,0.1004,0.1061,0.1055,0.1106,0.1104,0.1103,0.1102,0,-0.075,-0.0718,-0.0733,-0.069,-0.0686,-0.0699,-0.0676,-0.0677,-0.0588,-0.0531,-0.05,-0.0286,-0.0048,0.024,0.0572,0.0721,0.0954,0.1029,0.0996,0.1017,0.1065,0.1059,0.1087,0.1085,0.1082,0.108,0.1079,0,-0.0802,-0.0827,-0.0804,-0.0816,-0.0791,-0.08,-0.0821,-0.0753,-0.0731,-0.0586,-0.0564,-0.035,-0.0162,0.0238,0.0517,0.0843,0.0924,0.0967,0.0958,0.1021,0.1053,0.1051,0.1048,0.1001,0.0998,0.0997,0.0995,0,-0.0882,-0.0878,-0.0874,-0.0915,-0.0929,-0.0961,-0.0956,-0.0957,-0.086,-0.0769,-0.0608,-0.0456,-0.0118,0.0199,0.0532,0.0723,0.0891,0.0931,0.1019,0.0955,0.0936,0.0968,0.097,0.098,0.0981,0.0983,0.0983,0.0984,-0.093,-0.0938,-0.095,-0.0991,-0.1033,-0.1084,-0.1092,-0.1048,-0.0989,-0.0807,-0.066,-0.0395,-0.0119,0.0333,0.0574,0.0766,0.0789,0.0885,0.0893,0.0903,0.0809,0.078,0.0784,0.0784,0.0784,0.0785,0.0785,0,-0.0956,-0.0982,-0.1036,-0.1075,-0.1159,-0.1159,-0.1162,-0.1113,-0.1003,-0.0814,-0.0607,-0.0271,0.0038,0.0318,0.0601,0.0763,0.0811,0.0788,0.0854,0.0866,0.0877,0.0786,0.0754,0.0754,0.0755,0.0755,0,0,-0.0965,-0.1011,-0.1041,-0.1171,-0.1221,-0.1271,-0.1259,-0.1126,-0.0968,-0.0722,-0.0513,-0.0268,0.0063,0.0268,0.0486,0.0633,0.0704,0.0633,0.0638,0.0701,0.0711,0.0907,0.0773,0,0,0,0,0]}],[{"header":{"parameterUnit":"m.s-1","parameterCategory":2,"la1":30.2991,"la2":30.254,"lo1":-89.0895,"lo2":-89.0444,"dx":0.0017,"dy":0.0017,"nx":28,"ny":28,"refTime":"2022-12-09T15:00:00:Z","depth":"4","parameterNumber":2,"parameterNumberName":"U-component_of_CURRENTS"},"data":[0,0,0,0,0,0,0,0,0,0,0,0,0,0,0,0,0,0,0,0,0,0,0,0,0,0,0,0,0,0,0,0,0,0,0,0,0,0,0,0,0,0,0,0,0,0,0,0,0,0,0,0,0,0,0,0,0,0,-0.1201,-0.1202,0,-0.1257,-0.1258,-0.1258,-0.1264,-0.1264,-0.1263,-0.1263,-0.1304,-0.1305,-0.1307,0,0,0,0,0,0,0,0,0,0,0,0,0,-0.112,-0.1121,-0.1201,-0.1202,-0.1203,-0.1257,-0.1258,-0.1258,-0.1264,-0.1264,-0.1263,-0.1263,-0.1304,-0.1305,-0.1307,0,0,0,0,0,0,0,0,0,0,0,0,0,-0.1161,-0.1122,-0.12,-0.1214,-0.1216,-0.1257,-0.1258,-0.1259,-0.1264,-0.1264,-0.1263,-0.1263,-0.1303,-0.1305,-0.1307,-0.133,0,0,-0.1313,-0.1314,0,0,0,0,0,0,0,0,-0.1159,-0.1164,-0.1211,-0.1213,-0.1216,-0.1256,-0.1245,-0.1283,-0.1264,-0.1243,-0.1263,-0.1263,-0.1289,-0.1292,-0.13,-0.1332,-0.1333,-0.1314,-0.1315,-0.1316,-0.1316,0,0,0,0,0,0,0,-0.1156,-0.1162,-0.122,-0.1212,-0.1215,-0.1226,-0.123,-0.1252,-0.1265,-0.1245,-0.1246,-0.1257,-0.1289,-0.1298,-0.1301,-0.1334,-0.1314,-0.1315,-0.1317,-0.1318,-0.1409,-0.141,0,0,0,0,0,0,-0.1154,-0.1159,-0.1218,-0.1222,-0.1189,-0.1228,-0.1233,-0.1241,-0.1265,-0.127,-0.1257,-0.1257,-0.1294,-0.1298,-0.1302,-0.1361,-0.1316,-0.1318,-0.1319,-0.1408,-0.141,-0.1411,0,0,0,0,0,0,-0.1152,-0.1159,-0.1216,-0.1194,-0.1203,-0.123,-0.1239,-0.1242,-0.1268,-0.1276,-0.1279,-0.1282,-0.1294,-0.1299,-0.1343,-0.1361,-0.1319,-0.1321,-0.1407,-0.1409,-0.141,-0.1459,0,0,0,0,0,0,-0.115,-0.1158,-0.1167,-0.1194,-0.1204,-0.1242,-0.124,-0.1244,-0.1276,-0.1277,-0.1298,-0.13,-0.1294,-0.134,-0.1345,-0.1364,-0.1322,-0.1405,-0.1408,-0.141,-0.1456,-0.1463,-0.1468,0,0,0,0,0,-0.1146,-0.1162,-0.1167,-0.1174,-0.1214,-0.1242,-0.1248,-0.1264,-0.1278,-0.1286,-0.1315,-0.13,-0.1357,-0.1344,-0.1349,-0.1368,-0.1404,-0.1407,-0.1409,-0.1454,-0.1461,-0.1468,0,0,0,0,0,0,-0.1133,-0.1166,-0.1171,-0.1195,-0.1217,-0.1244,-0.1262,-0.1279,-0.131,-0.132,-0.1327,-0.1331,-0.1368,-0.1369,-0.1354,-0.14,-0.1374,-0.1378,-0.1406,-0.1413,-0.1419,-0.1426,-0.1324,0,0,0,0,0,-0.1135,-0.1153,-0.1182,-0.1201,-0.1216,-0.1245,-0.1263,-0.1277,-0.1307,-0.1321,-0.1344,-0.1366,-0.1382,-0.14,-0.141,-0.1451,-0.1448,-0.1462,-0.1468,-0.1473,-0.1483,-0.1508,-0.1517,-0.142,-0.142,-0.142,0,0,-0.1135,-0.1156,-0.1166,-0.1199,-0.1221,-0.1249,-0.1254,-0.1289,-0.1317,-0.1322,-0.1377,-0.1389,-0.1396,-0.143,-0.1447,-0.1438,-0.1498,-0.1477,-0.1481,-0.1488,-0.1512,-0.1521,-0.153,-0.1421,-0.1421,-0.1421,0,0,-0.1139,-0.1165,-0.1178,-0.1205,-0.1243,-0.1264,-0.128,-0.1324,-0.1346,-0.1401,-0.1404,-0.1435,-0.1477,-0.1479,-0.1485,-0.1534,-0.1524,-0.1539,-0.1584,-0.1608,-0.1616,-0.1623,-0.1622,-0.1629,-0.1548,-0.1548,-0.1548,0,-0.1137,-0.1159,-0.1186,-0.1212,-0.1245,-0.1275,-0.1307,-0.1333,-0.1388,-0.1422,-0.1423,-0.1499,-0.1495,-0.1537,-0.1547,-0.1546,-0.1558,-0.1555,-0.1616,-0.1623,-0.1629,-0.1627,-0.1634,-0.1551,-0.155,-0.155,-0.155,0,-0.1148,-0.1175,-0.1192,-0.1233,-0.1272,-0.1305,-0.1352,-0.1397,-0.1441,-0.1471,-0.1538,-0.155,-0.1596,-0.1593,-0.1586,-0.1634,-0.1625,-0.1615,-0.1597,-0.1642,-0.1636,-0.1643,-0.1554,-0.1553,-0.1553,-0.1552,0,0,-0.1111,-0.1183,-0.119,-0.1224,-0.1292,-0.1329,-0.139,-0.1452,-0.1509,-0.1556,-0.1628,-0.1648,-0.1672,-0.168,-0.1679,-0.1698,-0.1736,-0.1686,-0.1686,-0.1684,-0.1787,-0.1665,-0.166,-0.1749,-0.1751,-0.1752,-0.176,0,-0.1107,-0.1158,-0.1204,-0.127,-0.1303,-0.1376,-0.1437,-0.1506,-0.1563,-0.1638,-0.1664,-0.1718,-0.1699,-0.1731,-0.1751,-0.1741,-0.1758,-0.1734,-0.1745,-0.1744,-0.163,-0.1665,-0.1758,-0.1764,-0.1766,-0.1767,-0.1768,0,-0.1094,-0.1134,-0.1196,-0.1303,-0.1331,-0.1386,-0.1513,-0.157,-0.1668,-0.1716,-0.1784,-0.1809,-0.1849,-0.1822,-0.1848,-0.1843,-0.1824,-0.1809,-0.1809,-0.1685,-0.1635,-0.1713,-0.1779,-0.1778,-0.1777,-0.1776,-0.1776,0,-0.1045,-0.1133,-0.1189,-0.1224,-0.1345,-0.141,-0.1483,-0.1597,-0.1663,-0.1766,-0.1823,-0.1883,-0.1914,-0.1921,-0.1883,-0.1886,-0.1893,-0.1887,-0.176,-0.175,-0.1836,-0.1828,-0.1906,-0.1906,-0.1906,-0.1906,-0.1906,0,-0.1014,-0.1055,-0.1178,-0.1207,-0.131,-0.1403,-0.1516,-0.16,-0.1714,-0.1785,-0.1859,-0.1901,-0.1945,-0.195,-0.1918,-0.1845,-0.1921,-0.1771,-0.1749,-0.1854,-0.1848,-0.1839,-0.1831,-0.1906,-0.1906,-0.1906,-0.1906,0,-0.0938,-0.1011,-0.109,-0.1231,-0.1286,-0.1365,-0.153,-0.1602,-0.1713,-0.1807,-0.1842,-0.1928,-0.1922,-0.193,-0.1921,-0.1866,-0.1816,-0.1768,-0.1866,-0.1849,-0.1655,-0.165,-0.1652,-0.1647,-0.1644,-0.1641,-0.1639,0,-0.0901,-0.0929,-0.1098,-0.117,-0.1239,-0.1363,-0.1449,-0.1588,-0.1657,-0.1794,-0.1824,-0.1868,-0.1897,-0.1776,-0.1801,-0.174,-0.1711,-0.1697,-0.1692,-0.1653,-0.1632,-0.1632,-0.1632,-0.1633,-0.1632,-0.1631,-0.163,0,-0.0835,-0.0906,-0.0988,-0.1118,-0.1228,-0.1333,-0.1455,-0.1493,-0.1636,-0.1753,-0.1746,-0.1733,-0.1719,-0.1686,-0.1643,-0.16,-0.1721,-0.1661,-0.1669,-0.1664,-0.163,-0.1613,-0.1617,-0.1618,-0.162,-0.1621,-0.1622,0,-0.0799,-0.0847,-0.0958,-0.1075,-0.1202,-0.1263,-0.1338,-0.1405,-0.1477,-0.1625,-0.1606,-0.163,-0.1689,-0.161,-0.1568,-0.1519,-0.1507,-0.148,-0.1497,-0.151,-0.1459,-0.1396,-0.1297,0,0,0,0,0,-0.0759,-0.0801,-0.0903,-0.1026,-0.1139,-0.1191,-0.1332,-0.1401,-0.1531,-0.1488,-0.1543,-0.151,-0.1457,-0.1469,-0.1384,-0.1517,-0.1519,-0.1419,-0.1498,-0.1551,-0.1565,-0.1518,0,0,0,0,0,0,-0.0733,-0.0813,-0.0868,-0.0948,-0.1002,-0.1097,-0.1167,-0.1253,-0.124,-0.1365,-0.1324,-0.1428,-0.1376,-0.1455,-0.1346,-0.1355,-0.1381,-0.1449,-0.1446,-0.1543,-0.1556,-0.1567,-0.1523,0,0,0,0,0]},{"header":{"parameterUnit":"m.s-1","parameterCategory":2,"la1":30.2991,"la2":30.254,"lo1":-89.0895,"lo2":-89.0444,"dx":0.0017,"dy":0.0017,"nx":28,"ny":28,"refTime":"2022-12-09T15:00:00:Z","depth":"4","parameterNumber":3,"parameterNumberName":"V-component_of_CURRENTS"},"data":[0,0,0,0,0,0,0,0,0,0,0,0,0,0,0,0,0,0,0,0,0,0,0,0,0,0,0,0,0,0,0,0,0,0,0,0,0,0,0,0,0,0,0,0,0,0,0,0,0,0,0,0,0,0,0,0,0,0,-0.0241,-0.0241,0,-0.0239,-0.0239,-0.0239,-0.0192,-0.0191,-0.019,-0.0189,-0.0144,-0.0144,-0.0143,0,0,0,0,0,0,0,0,0,0,0,0,0,-0.019,-0.0191,-0.0241,-0.0241,-0.0241,-0.0239,-0.0239,-0.0239,-0.0192,-0.0191,-0.019,-0.0189,-0.0144,-0.0144,-0.0143,0,0,0,0,0,0,0,0,0,0,0,0,0,-0.02,-0.0191,-0.0241,-0.0219,-0.0217,-0.0239,-0.0239,-0.0239,-0.0193,-0.0191,-0.0189,-0.0188,-0.0144,-0.0144,-0.0143,-0.0171,0,0,-0.0142,-0.0142,0,0,0,0,0,0,0,0,-0.02,-0.0202,-0.0222,-0.0221,-0.0219,-0.0216,-0.0205,-0.0215,-0.0193,-0.02,-0.0189,-0.0187,-0.0167,-0.0164,-0.0165,-0.0169,-0.0167,-0.0142,-0.0142,-0.0142,-0.0142,0,0,0,0,0,0,0,-0.0199,-0.0202,-0.0238,-0.0223,-0.0221,-0.0205,-0.0205,-0.0206,-0.0189,-0.0199,-0.0196,-0.02,-0.0165,-0.0165,-0.0163,-0.0167,-0.0142,-0.0142,-0.0142,-0.0141,-0.0181,-0.0182,0,0,0,0,0,0,-0.0207,-0.0201,-0.0238,-0.0238,-0.0208,-0.0208,-0.0207,-0.0217,-0.019,-0.0185,-0.0201,-0.0198,-0.0167,-0.0164,-0.0162,-0.0169,-0.0142,-0.0141,-0.0141,-0.018,-0.0181,-0.0183,0,0,0,0,0,0,-0.0206,-0.021,-0.0238,-0.0221,-0.0223,-0.0211,-0.0221,-0.0218,-0.021,-0.0193,-0.0186,-0.0196,-0.0166,-0.0162,-0.0158,-0.0167,-0.0141,-0.0141,-0.0178,-0.018,-0.0182,-0.0199,0,0,0,0,0,0,-0.0204,-0.021,-0.022,-0.0222,-0.0225,-0.025,-0.0223,-0.0219,-0.0216,-0.0211,-0.0187,-0.0182,-0.0164,-0.0158,-0.0157,-0.0166,-0.0141,-0.0177,-0.0179,-0.0181,-0.0197,-0.0201,-0.0205,0,0,0,0,0,-0.0202,-0.0228,-0.0221,-0.0225,-0.0239,-0.0251,-0.0251,-0.0235,-0.0217,-0.022,-0.0201,-0.0182,-0.0173,-0.0159,-0.0157,-0.0167,-0.0175,-0.0178,-0.0181,-0.0195,-0.02,-0.0205,0,0,0,0,0,0,-0.0211,-0.0226,-0.0218,-0.0245,-0.0246,-0.0244,-0.0252,-0.0238,-0.0227,-0.0223,-0.0194,-0.0188,-0.0193,-0.0184,-0.0169,-0.0189,-0.0174,-0.0177,-0.0185,-0.019,-0.0194,-0.0174,-0.014,0,0,0,0,0,-0.022,-0.0241,-0.0244,-0.0266,-0.0269,-0.0259,-0.0262,-0.0254,-0.0246,-0.0239,-0.022,-0.0209,-0.0208,-0.0199,-0.0201,-0.0207,-0.0153,-0.0217,-0.0221,-0.0224,-0.0209,-0.0122,-0.0115,-0.0192,-0.0192,-0.0192,0,0,-0.0233,-0.0241,-0.0255,-0.0269,-0.0269,-0.0286,-0.0256,-0.0269,-0.0275,-0.0238,-0.0238,-0.0226,-0.0216,-0.0223,-0.0224,-0.021,-0.018,-0.0228,-0.023,-0.0213,-0.0124,-0.0115,-0.0108,-0.0194,-0.0194,-0.0194,0,0,-0.0274,-0.0273,-0.0306,-0.0307,-0.0314,-0.0309,-0.0313,-0.031,-0.0297,-0.0302,-0.0278,-0.0263,-0.0267,-0.0248,-0.0243,-0.0274,-0.021,-0.0287,-0.0279,-0.0195,-0.0186,-0.0178,-0.0114,-0.0099,-0.0281,-0.0281,-0.0281,0,-0.0284,-0.0321,-0.0315,-0.0339,-0.0341,-0.0321,-0.0344,-0.0339,-0.0332,-0.0315,-0.0307,-0.0278,-0.0276,-0.0255,-0.027,-0.0279,-0.0221,-0.0257,-0.0195,-0.0186,-0.0177,-0.0112,-0.0096,-0.0282,-0.0282,-0.0282,-0.0282,0,-0.0344,-0.0368,-0.0384,-0.0405,-0.0408,-0.0424,-0.0414,-0.041,-0.0391,-0.0369,-0.034,-0.0318,-0.0288,-0.0298,-0.0295,-0.0244,-0.0221,-0.0211,-0.0171,-0.0169,-0.0103,-0.0086,-0.0284,-0.0283,-0.0283,-0.0283,0,0,-0.0374,-0.0419,-0.0422,-0.0436,-0.0438,-0.0448,-0.0455,-0.0442,-0.0425,-0.04,-0.0358,-0.0354,-0.0308,-0.03,-0.0279,-0.0212,-0.0121,-0.0185,-0.018,-0.0101,0.0069,0.0023,0.0037,-0.0083,-0.008,-0.0077,0.0086,0,-0.0414,-0.0474,-0.048,-0.052,-0.0541,-0.0516,-0.0519,-0.0501,-0.0464,-0.0419,-0.0361,-0.0328,-0.0318,-0.0294,-0.0224,-0.0154,-0.0074,-0.0167,0.0038,0.0044,0.0021,0.0056,-0.0068,0.01,0.0104,0.0107,0.0109,0,-0.0466,-0.0493,-0.0547,-0.0565,-0.057,-0.0588,-0.0559,-0.0556,-0.0487,-0.0452,-0.0377,-0.0323,-0.0241,-0.0226,-0.0055,-0.0107,-0.0017,0.0049,0.0058,0.0038,0.003,0.0099,0.0141,0.0138,0.0136,0.0134,0.0132,0,-0.0488,-0.0537,-0.0578,-0.0584,-0.0603,-0.0611,-0.061,-0.0563,-0.0544,-0.0454,-0.0414,-0.0297,-0.0235,-0.0098,0.0015,0.0001,0.0217,0.0215,0.0268,0.0266,0.0269,0.0259,0.037,0.0369,0.0369,0.0369,0.0368,0,-0.0521,-0.0555,-0.0594,-0.0613,-0.0642,-0.0638,-0.0641,-0.0615,-0.0558,-0.0514,-0.0423,-0.0348,-0.0193,-0.0064,0.0048,0.0203,0.0252,0.0288,0.0315,0.0251,0.0237,0.0281,0.0268,0.0375,0.0373,0.0372,0.0371,0,-0.0544,-0.0575,-0.0619,-0.0648,-0.0661,-0.0675,-0.0683,-0.0677,-0.0613,-0.0546,-0.0516,-0.0369,-0.02,-0.0053,0.0167,0.0232,0.0385,0.0433,0.0348,0.0363,0.0374,0.0358,0.0525,0.0525,0.0525,0.0525,0.0525,0,-0.0563,-0.0594,-0.0645,-0.0676,-0.0696,-0.0721,-0.0742,-0.0709,-0.0685,-0.0549,-0.051,-0.0341,-0.0233,0.0049,0.0191,0.0407,0.0425,0.0498,0.0444,0.0386,0.0396,0.038,0.0365,0.0525,0.0525,0.0525,0.0525,0,-0.0585,-0.0608,-0.0637,-0.0709,-0.075,-0.0787,-0.0799,-0.0783,-0.0713,-0.0653,-0.0477,-0.0321,-0.0133,0.006,0.0215,0.0369,0.0442,0.0498,0.0499,0.0449,0.0388,0.0394,0.0379,0.0524,0.0524,0.0524,0.0524,0,-0.0589,-0.0615,-0.0671,-0.0727,-0.0793,-0.0837,-0.0837,-0.0788,-0.0749,-0.0584,-0.0518,-0.0303,-0.0163,0.0044,0.0197,0.0324,0.0354,0.0382,0.0389,0.0391,0.0278,0.0176,0.0292,0,0,0,0,0,-0.0585,-0.063,-0.0694,-0.076,-0.0833,-0.0871,-0.0873,-0.0855,-0.0771,-0.0651,-0.0579,-0.0393,-0.0136,-0.0013,0.0111,0.0159,0.034,0.0303,0.0365,0.0524,0.0524,0.0407,0,0,0,0,0,0,-0.0584,-0.0647,-0.0689,-0.0788,-0.0844,-0.0916,-0.0921,-0.0866,-0.078,-0.0663,-0.052,-0.039,-0.0147,-0.021,0.0106,0.0148,0.0198,0.044,0.0442,0.0523,0.0524,0.0524,0.0404,0,0,0,0,0]}]]